Wind_Speed
24 24 24 27 27 26 25 24 23 22 23 24 23 22 23 22 21 21 20 19 17 14 12 10 11 10 10 12 16 15 18 18 18 19 18 18 18 18 18 17 18 19 17
30 27 25 25 26 26 26 25 25 23 22 22 22 23 22 22 21 19 19 16 15 13 12 10 9 11 11 12 13 16 19 19 19 18 18 18 18 17 16 17 16 17 16
32 28 26 26 26 26 26 26 25 25 23 22 21 22 21 20 20 18 16 14 13 12 12 10 8 10 12 13 14 16 18 20 19 19 18 19 18 16 16 16 17 16 16
34 31 28 28 27 26 26 26 25 24 24 22 21 20 21 20 19 17 16 14 14 12 11 11 9 11 13 15 16 16 18 18 18 17 16 17 14 16 16 16 17 16 15
33 31 30 28 26 25 25 24 24 24 23 21 20 19 17 17 16 16 14 13 13 12 10 10 9 10 13 14 18 17 18 17 16 18 14 14 17 15 16 16 15 14 15
31 30 29 27 25 23 23 24 23 22 22 20 18 18 17 15 14 14 12 11 11 10 9 8 9 10 11 14 16 17 17 16 16 15 12 13 16 15 15 16 15 14 14
29 29 29 27 24 22 22 22 22 21 19 18 17 16 16 14 12 12 11 10 8 9 9 8 7 9 10 11 15 17 16 17 15 12 7 11 13 14 15 15 14 14 14
30 29 28 26 24 22 21 22 22 21 19 17 16 15 14 14 13 11 10 9 7 6 7 8 9 8 11 10 13 15 17 15 10 6 13 12 13 14 15 15 13 14 13
26 27 27 25 24 22 22 22 22 22 20 18 16 15 14 13 12 11 10 8 7 7 6 6 9 9 11 11 12 15 17 13 9 9 14 12 14 15 15 14 13 13 13
22 26 28 26 24 23 22 22 22 22 21 19 17 15 14 12 11 12 11 9 7 6 6 6 8 8 10 11 12 13 14 12 11 11 15 14 14 16 16 15 14 13 14
20 23 27 26 25 22 21 21 20 20 20 18 17 15 13 12 12 11 11 9 7 7 7 7 8 7 8 11 12 13 14 14 11 11 15 16 15 17 16 16 15 14 13
20 21 26 28 26 24 22 20 20 19 19 19 17 16 15 14 13 12 10 9 8 6 7 7 9 9 10 10 10 12 15 16 13 10 16 17 15 17 17 16 16 17 15
27 25 26 26 25 24 23 22 21 20 20 19 18 18 16 14 14 14 12 11 9 9 8 9 9 10 9 10 10 11 14 17 15 11 17 17 18 18 18 18 18 18 17
24 24 24 24 22 21 23 22 21 22 21 20 20 18 17 17 16 15 14 12 10 10 10 11 11 10 10 10 10 10 14 17 18 14 16 19 19 19 17 20 20 18 18
25 24 25 24 24 23 23 22 22 20 19 19 19 19 18 19 18 17 18 16 13 11 11 10 10 11 11 11 13 13 14 17 19 19 17 22 21 20 20 20 20 19 19
26 26 25 25 24 23 22 23 23 21 20 20 20 19 19 19 18 18 19 18 14 12 11 11 10 11 12 12 15 14 14 15 22 23 20 20 22 20 21 21 20 20 21
28 27 28 27 25 24 22 21 21 21 20 20 20 19 20 21 20 19 19 18 15 12 13 13 12 11 13 13 18 14 14 15 20 23 20 17 19 21 22 22 20 21 21
25 28 27 27 26 25 23 21 20 21 21 20 20 19 19 19 19 20 23 23 20 16 16 16 13 13 12 13 14 14 14 14 19 23 23 20 21 25 25 22 23 22 22
29 27 26 25 25 23 21 19 19 19 21 21 21 21 19 19 18 19 20 21 19 18 18 19 18 16 15 13 13 12 15 14 16 23 24 20 27 27 27 25 25 25 24
24 26 28 25 24 22 19 19 19 18 19 20 22 23 21 20 19 19 20 20 19 19 20 21 21 18 16 15 15 13 14 12 14 19 20 18 23 28 25 23 25 26 25
19 18 9 24 21 19 19 19 16 20 20 20 19 19 19 20 19 19 21 22 20 20 21 22 21 19 18 13 14 10 10 12 14 20 18 20 21 22 24 22 25 29 28
18 20 16 25 22 21 18 19 15 15 16 18 18 18 17 17 18 21 22 22 22 21 21 23 23 18 16 15 7 3 1 2 12 14 15 18 20 20 22 22 22 25 25
14 20 13 37 24 24 16 14 11 9 13 14 16 14 14 16 20 17 19 20 22 22 24 24 24 24 19 17 19 4 2 4 3 9 16 16 19 22 23 23 22 23 26
21 14 1 27 25 19 14 7 7 10 13 18 15 14 15 14 13 13 16 19 21 23 25 25 26 26 22 18 19 16 3 3 3 0 5 14 19 20 21 22 23 23 25
17 20 22 24 24 20 6 6 8 8 12 17 17 15 14 14 14 15 16 17 18 21 22 24 25 27 26 24 21 18 15 4 3 2 2 4 10 18 19 19 19 19 20
15 12 24 24 20 10 7 6 5 4 9 11 9 8 11 9 8 11 14 17 17 18 20 23 24 25 25 27 26 20 12 7 7 4 2 5 6 10 14 11 12 15 16
Wind_Direction
167 160 155 150 149 148 144 139 135 133 134 138 140 142 145 148 148 146 147 146 144 143 142 139 140 142 138 136 142 134 132 134 131 126 127 125 125 122 118 120 118 116 117
161 161 157 152 151 152 149 146 143 140 138 138 140 141 145 145 143 144 145 149 148 146 140 138 136 141 140 138 141 135 137 134 131 132 132 133 127 125 123 122 125 125 123
163 162 160 156 155 155 153 152 148 145 143 145 145 144 144 143 145 144 141 145 147 147 143 137 130 140 142 140 142 139 138 136 138 138 139 136 130 128 131 131 130 127 128
165 164 165 163 161 159 160 158 153 151 149 150 148 148 147 145 141 141 141 143 144 148 146 136 132 135 138 139 140 144 141 140 141 140 140 139 133 134 135 139 134 137 133
167 168 168 167 164 164 165 162 160 157 155 153 150 148 152 150 145 142 143 148 149 151 151 144 137 137 138 144 142 146 142 142 145 143 140 140 140 140 142 140 140 140 138
170 172 172 172 171 171 171 171 168 164 160 157 155 151 152 154 150 146 147 150 156 154 157 155 149 142 144 148 147 148 147 145 145 142 133 144 146 147 147 146 144 146 143
171 174 176 179 179 180 177 177 173 170 166 161 159 156 155 155 154 153 156 159 160 165 163 168 166 152 155 155 155 152 155 152 149 157 159 165 158 152 152 150 149 151 149
175 176 177 182 185 185 184 180 178 176 172 168 164 162 162 160 163 163 162 165 165 168 175 177 171 170 161 166 164 157 158 155 163 188 176 169 166 161 158 158 156 154 157
181 180 180 183 186 185 185 182 181 180 177 175 172 170 171 168 169 167 167 167 171 177 187 193 183 175 168 173 175 167 162 160 162 162 171 176 176 165 164 165 164 161 164
179 182 182 185 187 186 186 185 183 181 180 179 179 178 176 176 177 176 173 173 177 180 189 195 203 192 176 180 182 179 176 169 161 172 190 191 187 180 176 172 172 173 172
178 187 188 189 188 188 186 187 186 183 183 179 181 182 180 186 183 189 186 179 185 192 193 192 207 200 202 187 193 189 184 183 180 183 194 199 196 189 186 181 182 179 179
184 190 193 193 194 190 190 186 188 185 186 185 186 185 190 194 193 195 196 195 193 204 204 205 206 207 210 201 201 199 197 197 200 199 191 200 206 198 192 191 190 187 188
192 190 193 197 199 198 196 190 188 187 190 190 194 195 196 199 198 203 203 206 205 202 215 213 216 221 218 209 207 213 202 203 206 202 188 200 207 206 197 198 198 196 194
192 194 194 198 198 201 203 199 193 196 196 197 200 203 203 201 203 207 207 200 205 214 218 218 217 221 229 216 214 210 205 201 203 204 194 202 207 208 207 202 202 203 201
193 196 198 196 201 202 203 202 202 203 204 205 209 209 209 209 208 207 206 206 210 215 215 219 223 219 226 226 229 208 209 205 205 207 206 205 202 211 211 209 206 205 206
201 201 203 202 205 207 209 209 209 210 211 212 215 218 220 220 219 215 211 206 209 215 221 223 229 229 228 233 234 226 213 212 214 210 210 214 212 214 218 217 211 210 210
208 207 206 204 208 213 218 221 221 221 220 222 222 224 227 224 218 222 223 222 225 232 229 229 225 231 229 232 240 233 224 213 214 213 215 220 214 217 222 223 222 219 216
214 212 209 208 210 215 222 231 232 230 228 232 232 225 225 217 229 232 231 229 229 229 232 232 234 233 229 235 228 229 230 218 217 215 219 218 220 222 222 226 228 224 225
216 220 216 210 213 218 225 228 237 244 237 231 234 234 229 237 229 227 230 227 224 230 233 235 236 233 229 225 224 226 217 217 218 217 220 230 225 222 233 240 230 228 227
217 221 224 214 215 219 222 222 228 238 240 240 237 233 233 237 232 230 230 230 229 229 234 231 231 228 230 227 221 222 211 216 210 216 223 233 225 226 241 235 232 235 232
340 242 236 219 218 225 226 226 228 240 246 248 247 243 243 243 241 237 233 235 225 230 231 226 227 224 222 213 210 208 208 211 225 228 235 235 233 233 239 236 237 236 234
201 264 307 312 309 247 232 243 237 253 254 253 255 255 252 251 255 243 235 229 223 228 230 225 224 224 228 213 198 152 162 219 228 226 229 226 231 230 236 237 241 239 240
151 155 172 258 289 276 243 241 246 262 271 276 274 273 269 259 251 248 237 229 227 227 228 226 223 225 219 214 217 184 123 214 172 217 224 228 229 233 236 240 245 243 244
146 171 322 224 243 269 232 244 283 281 289 292 294 291 280 264 252 237 233 234 230 229 228 229 227 227 227 217 215 224 215 153 160 311 215 224 230 235 237 242 245 248 249
169 165 154 196 255 254 214 246 260 277 284 286 294 291 286 273 256 239 230 229 227 227 228 230 227 227 231 229 219 207 202 194 170 131 199 227 226 240 241 240 244 252 255
201 210 206 223 259 200 198 213 250 282 285 300 302 316 318 296 254 233 222 222 225 228 228 227 229 230 230 230 230 218 208 191 198 180 192 223 229 254 247 230 244 253 256
Height
783 786 791 792 796 797 799 801 803 805 807 809 809 812 813 815 816 817 819 821 823 825 826 826 825 827 828 828 829 830 830 833 835 836 838 839 841 842 844 846 847 848 849
779 784 789 793 797 800 800 801 803 805 807 810 812 813 815 816 818 819 820 823 824 826 827 828 827 827 828 829 831 832 833 834 837 838 840 841 842 844 846 847 849 850 851
779 784 788 791 795 799 801 802 804 805 808 810 812 813 815 817 818 820 821 824 825 827 827 829 829 828 828 830 832 834 835 836 838 839 841 843 844 846 847 849 850 853 853
779 783 788 791 794 796 800 803 805 806 808 811 813 815 817 818 819 820 822 824 825 827 828 829 830 831 830 831 832 835 836 838 840 841 843 845 846 847 848 850 852 853 855
782 785 789 792 796 799 801 804 806 807 809 811 813 815 818 820 820 821 822 824 825 827 829 830 831 832 832 833 833 837 839 840 842 843 845 846 847 849 850 851 853 855 856
784 788 791 794 797 800 802 803 806 808 810 812 814 816 818 821 823 823 824 825 826 827 828 830 831 833 834 834 835 837 839 842 843 845 846 847 848 849 851 852 854 856 857
785 788 791 795 797 800 802 805 807 810 812 814 816 817 818 820 823 825 826 826 826 827 828 830 831 832 834 835 837 837 840 842 844 846 847 848 849 851 852 853 854 856 858
785 788 791 796 798 800 803 805 808 811 813 815 817 819 820 820 822 824 826 827 828 827 828 829 831 832 833 836 837 838 840 842 845 846 847 849 851 852 854 854 855 857 859
788 790 792 796 799 801 803 805 808 810 812 815 817 819 821 822 823 824 826 827 828 828 828 830 830 832 834 836 838 839 841 842 844 846 848 849 852 853 854 855 856 858 859
790 791 793 797 800 800 804 805 806 809 811 813 816 818 820 822 823 824 825 825 827 827 828 829 831 833 834 835 837 839 842 843 843 845 847 850 851 854 855 855 857 858 860
789 793 796 799 800 802 805 807 808 809 811 813 815 817 820 822 824 824 824 824 826 827 827 828 830 832 834 836 837 839 841 843 843 844 846 849 850 852 854 855 856 857 860
791 793 795 797 800 801 803 805 807 809 810 812 814 816 818 820 822 824 824 824 825 827 827 827 829 830 833 835 837 838 839 842 842 843 844 847 850 852 853 855 856 857 859
785 788 792 796 799 801 802 804 805 806 808 810 812 814 816 818 820 822 823 824 825 826 826 826 827 829 831 833 836 838 838 840 842 841 842 844 848 851 852 854 855 857 858
787 789 791 795 798 800 802 803 802 804 806 807 810 812 814 816 818 820 820 821 823 825 825 826 826 828 830 832 833 834 836 838 840 841 841 842 846 849 850 852 853 856 858
784 787 789 791 795 798 800 802 803 804 804 806 809 810 812 813 815 818 818 819 821 823 824 824 825 826 827 830 831 832 834 836 837 838 838 840 843 848 850 851 853 854 856
782 785 789 792 794 798 800 802 802 802 803 804 805 807 809 811 814 815 817 818 819 821 822 823 823 823 825 827 829 829 833 833 833 836 837 840 842 844 847 849 851 853 854
780 783 786 789 793 797 800 802 803 804 804 804 804 805 806 808 810 813 815 816 817 818 821 822 821 822 822 824 826 827 829 829 829 832 835 838 840 842 845 847 848 851 852
782 782 784 787 790 793 797 802 803 804 804 804 805 803 803 804 806 808 811 813 815 816 818 819 820 819 820 822 823 825 826 826 827 829 832 834 834 839 842 844 846 848 850
777 785 785 787 789 793 795 798 802 804 803 802 801 801 800 801 802 804 806 809 812 813 814 816 818 819 818 819 821 823 822 822 824 826 829 831 833 835 838 839 842 844 847
779 784 787 788 790 789 794 796 798 801 801 800 798 797 797 798 798 799 802 806 807 808 810 813 815 816 816 817 819 821 822 821 823 825 827 828 830 832 834 836 839 840 843
782 786 792 790 787 790 793 796 796 798 798 797 794 794 794 795 795 796 797 801 803 804 805 809 813 814 814 815 817 818 819 820 822 823 825 827 828 829 831 833 834 836 838
788 792 792 796 792 794 790 794 794 795 794 793 791 790 790 790 792 792 794 796 799 801 803 806 809 811 812 813 816 818 821 822 821 821 822 823 825 827 828 829 830 831 833
793 792 795 791 789 794 789 791 791 793 792 791 790 787 787 786 787 788 789 792 795 796 799 802 805 808 809 811 814 815 820 822 819 819 820 822 823 824 824 825 826 827 829
789 784 780 783 791 790 789 790 792 793 791 790 788 785 784 783 782 783 785 787 790 792 794 797 801 805 807 808 812 814 814 814 817 820 817 818 820 820 820 820 822 823 824
788 786 783 788 792 790 788 791 795 792 792 791 788 784 781 779 778 779 782 784 786 788 791 794 798 801 804 805 807 809 812 813 813 814 819 818 818 818 817 816 817 818 819
784 780 781 785 789 790 794 795 795 792 794 790 785 781 778 775 773 775 777 780 782 785 787 791 794 798 799 802 804 805 807 809 811 813 815 815 815 815 814 810 810 812 814